Tracking 28790 objects as of 19-Apr-2024
HD Live streaming from Space Station
objects crossing your sky now

BREEZE-M DEB

Track BREEZE-M DEB now!
10-day predictions


NORAD ID: 38619
Int'l Code: 2008-011BS
Perigee: 1,055.1 km
Apogee: 26,302.8 km
Inclination: 49.2 °
Period: 470.9 minutes
Semi major axis: 20049 km
RCS: 0.1518 m2 (medium)
Launch date: March 14, 2008
Source: Commonwealth of Independent States (former USSR) (CIS)
Launch site: TYURATAM MISSILE AND SPACE COMPLEX (TTMTR)

Note: This is SATELLITE DEBRIS
Your satellite tracking list
Your tracking list is empty




NASA's NSSDC Master Catalog

Two Line Element Set (TLE):
1 38619U 08011BS  24101.05122585 -.00000089  00000-0  00000-0 0  9991
2 38619  49.1659 331.6204 6296181 300.4198  12.2158  3.05796403141619
Source of the keplerian elements: AFSPC